This demonstration page uses our WeatherBlox Daily Observations layout. Learn more.

Left ArrowRight Arrow

38.20091, -84.87328

Hourly Observations for May 4, 2020

Temp ( °F °C ) Dew Point ( °F °C ) Humidity (%) Winds ( mph kmh ) Pressure ( in mb ) Visibility ( mi km ) Precip ( " mm )
12:53 am 00:53 Cloudy 59 15 52 11.1 78 78 NW 6 9 29.94 1014 10 16 0.00 0.00
1:53 am 01:53 Cloudy 58 14.4 50 10 75 75 W 5 7 29.95 1014 10 16 0.00 0.00
2:53 am 02:53 Clear 54 12.2 50 10 87 87 NW 3 6 29.96 1015 10 16 0.00 0.00
3:53 am 03:53 Clear 51 10.6 47 8.3 86 86 WSW 3 6 29.96 1015 10 16 0.00 0.00
4:53 am 04:53 Clear 48 8.9 46 7.8 93 93 Calm 29.97 1015 10 16 0.00 0.00
5:53 am 05:53 Clear 46 7.8 44 6.7 93 93 Calm 29.98 1015 10 16 0.00 0.00
6:22 am 06:22 Mostly Clear with Mist and Fog 45 7.2 43 6.1 93 93 Calm 30.01 1016 2 3 0.00 0.00
6:24 am 06:24 Mostly Cloudy with Mist and Fog 45 7.2 43 6.1 93 93 Calm 30.01 1016 1 1 0.00 0.00
6:45 am 06:45 Partly Cloudy with Mist and Fog 46 7.8 43 6.1 89 89 Calm 30.02 1016 2 2 0.00 0.00
6:47 am 06:47 Partly Cloudy with Mist and Fog 46 8 43 6 87 87 Calm 30.02 1016 4 6 0.00 0.00
6:49 am 06:49 Partly Cloudy with Mist and Fog 45 7 43 6 93 93 SW 3 6 30.02 1017 1 2 0.00 0.00
6:53 am 06:53 Mostly Cloudy with Fog 44 6.7 42 5.6 93 93 SW 3 6 30.00 1016 0 0 0.00 0.00
7:16 am 07:16 Partly Cloudy with Mist and Fog 46 7.8 44 6.7 93 93 Calm 30.03 1017 2 2 0.00 0.00
7:23 am 07:23 Sunny 47 8.3 45 7.2 93 93 Calm 30.03 1017 10 16 0.00 0.00
7:53 am 07:53 Sunny 48 8.9 46 7.8 93 93 N 6 9 30.03 1017 10 16 0.00 0.00
8:53 am 08:53 Sunny 57 13.9 47 8.3 69 69 Calm 30.04 1017 10 16 0.00 0.00
9:53 am 09:53 Sunny 62 16.7 47 8.3 58 58 N 3 6 30.03 1017 10 16 0.00 0.00
10:53 am 10:53 Sunny 67 19.4 47 8.3 49 49 Calm 30.03 1017 10 16 0.00 0.00
11:53 am 11:53 Sunny 70 21.1 42 5.6 37 37 WNW 3 6 30.03 1017 10 16 0.00 0.00
12:53 pm 12:53 Sunny 72 22.2 43 6.1 35 35 N 7 11 30.01 1016 10 16 0.00 0.00
1:53 pm 13:53 Sunny 74 23.3 48 8.9 40 40 ENE 7 11 29.98 1015 10 16 0.00 0.00
2:53 pm 14:53 Sunny 75 23.9 43 6.1 32 32 NE 9 15 29.96 1015 10 16 0.00 0.00
3:53 pm 15:53 Sunny 75 23.9 44 6.7 33 33 ENE 7 11 29.97 1015 10 16 0.00 0.00
4:53 pm 16:53 Sunny 75 23.9 44 6.7 33 33 ENE 5 7 29.96 1015 10 16 0.00 0.00
5:53 pm 17:53 Sunny 74 23.3 44 6.7 34 34 NNE 6 9 29.98 1015 10 16 0.00 0.00
6:53 pm 18:53 Sunny 71 21.7 44 6.7 38 38 N 6 9 29.99 1016 10 16 0.00 0.00
7:53 pm 19:53 Sunny 69 20.6 44 6.7 41 41 NNE 5 7 29.96 1015 10 16 0.00 0.00
8:53 pm 20:53 Clear 67 19.4 43 6.1 42 42 NNE 8 13 29.95 1014 10 16 0.00 0.00
9:53 pm 21:53 Partly Cloudy 64 17.8 42 5.6 45 45 ENE 12 19 29.91 1013 10 16 0.00 0.00
10:53 pm 22:53 Mostly Clear 63 17.2 46 7.8 54 54 E 9 15 29.87 1012 10 16 0.00 0.00
11:53 pm 23:53 Mostly Cloudy 61 16.1 47 8.3 60 60 ENE 8 13 29.88 1012 10 16 0.00 0.00

Powered by AerisWeather